Location: Downe
(51.3167°N, 0.0500°E)
Time: 08:14:57
(UTC+00:00)

Cosmos 1934 Rocket - Pass Details

Date: 17 November 2019
Orbit: 938 x 999 km, 83.0° (Epoch: 14 December)

Event Time Altitude Azimuth Distance (km) Brightness Sun altitude
Exits shadow 04:36:30 51° 304° (NW) 1,235 4.2 -25.2°
Drops below altitude 10° 04:42:12 10° 3° (N) 2,783 6.4 -24.3°
Sets 04:44:50 0° 8° (N) 3,736 7.1 -23.9°
